{"data":{"norad_id":48999,"intl_designator":"2021-060AJ","name":"ONEWEB-0281","alt_names":[],"object_type":"PAYLOAD","status":"ACTIVE","operator":null,"country":"UK","launch_date":"2021-07-01","launch_site_code":"VOSTO","launch_vehicle":null,"mission":null,"orbit_class":"UNKNOWN","rcs_meters":null,"size_class":null,"mass_kg":null,"dimensions":null,"purposes":["comms"],"wikipedia_slug":null,"has_3d_model":false,"image_url":null,"decayed_at":null,"tle_current":{"epoch":"2026-05-25T04:35:25.484352Z","epoch_age_seconds":59339,"freshness":"FRESH","line1":"1 48999U 21060AJ  26145.19126718  .00000006  00000+0 -19034-4 0  9998","line2":"2 48999  87.9107 233.3367 0002031 102.1538 257.9821 13.16593734236609","mean_motion":13.16593734,"eccentricity":0.0002031,"inclination_deg":87.9107,"raan_deg":233.3367,"arg_perigee_deg":102.1538,"mean_anomaly_deg":257.9821,"bstar":-1.9034e-5,"rev_number":23660,"period_min":109.37314699388,"perigee_km":1196.220008967,"apogee_km":1199.2973377895,"semimajor_km":7575.8956733782,"source":"CELESTRAK","updated_at":"2026-05-25T13:38:22.479408Z"}}}